Location: Hicks
(37.9226°N, 89.9954°W)
Time: 08:49:28
(UTC+00:00)

Cosmos 1602 Rocket - Pass Details

Date: 14 December 2025
Orbit: 596 x 626 km, 82.5° (Epoch: 25 January)

Event Time Altitude Azimuth Distance (km) Brightness Sun altitude
Rises 12:14:52 0° 203° (SSW) 2,895 7.0 -10.3°
Reaches altitude 10° 12:17:12 10° 211° (SSW) 1,994 6.1 -9.9°
Maximum altitude 12:21:22 40° 281° (W) 922 4.0 -9.1°
Drops below altitude 10° 12:25:34 10° 352° (N) 2,006 5.9 -8.4°
Sets 12:27:55 0° 360° (N) 2,914 6.8 -7.9°
